Back to catalog

STARLINK-32748

AliveCommunicationsVLEO
NORAD 62524·PAYLOAD·🇺🇸 United States

Launched Jan 8, 2025 from Cape Canaveral Space Force Station

Loading…

Next Passes (next 24 hours)

TLE

FreshSource: CelesTrak SupGP

Epoch: Sep 14, 2026, 21:23 UTC

1 62524C 25004P   26257.89145833  .00032873  00000+0  11907-2 0  2572
2 62524  43.0000 231.1862 0001377 261.7725 205.0123 15.27561360    19

Track STARLINK-32748 in real time with AllMySat

Download on the App Store